| time (UTC) | temp F | wind direction | speed knots | gust knots | rain 1hr in | rain 24hr in | rain mn in | humidity % | barometer mb |
| 20260504192746 | 70 | 98 | 1.7 | 5.2 | 0.00 | 0.00 | 0.00 | 37 | 1008.0 |
| 20260504192246 | 69 | 300 | 1.7 | 2.6 | 0.00 | 0.00 | 0.00 | 38 | 1008.0 |
| 20260504191749 | 69 | 236 | 1.7 | 4.3 | 0.00 | 0.00 | 0.00 | 37 | 1008.0 |
| 20260504191247 | 69 | 244 | 2.6 | 5.2 | 0.00 | 0.00 | 0.00 | 37 | 1008.0 |
| 20260504190746 | 69 | 297 | 2.6 | 3.5 | 0.00 | 0.00 | 0.00 | 38 | 1008.0 |
| 20260504190247 | 69 | 323 | 1.7 | 3.5 | 0.00 | 0.00 | 0.00 | 38 | 1008.0 |
| 20260504185746 | 70 | 250 | 2.6 | 6.1 | 0.00 | 0.00 | 0.00 | 38 | 1008.0 |
| 20260504185247 | 70 | 242 | 0.9 | 3.5 | 0.00 | 0.00 | 0.00 | 37 | 1008.0 |
| 20260504184747 | 70 | 137 | 1.7 | 3.5 | 0.00 | 0.00 | 0.00 | 37 | 1008.0 |
| 20260504184246 | 70 | 326 | 2.6 | 4.3 | 0.00 | 0.00 | 0.00 | 37 | 1008.0 |
| 20260504183746 | 69 | 165 | 2.6 | 7.8 | 0.00 | 0.00 | 0.00 | 37 | 1008.0 |
| 20260504183247 | 69 | 300 | 1.7 | 4.3 | 0.00 | 0.00 | 0.00 | 38 | 1008.0 |
| 20260504182746 | 69 | 185 | 3.5 | 7.0 | 0.00 | 0.00 | 0.00 | 37 | 1008.0 |
| 20260504182247 | 69 | 242 | 1.7 | 4.3 | 0.00 | 0.00 | 0.00 | 38 | 1008.0 |
| 20260504181746 | 69 | 219 | 1.7 | 3.5 | 0.00 | 0.00 | 0.00 | 37 | 1008.0 |
| 20260504181247 | 69 | 238 | 2.6 | 5.2 | 0.00 | 0.00 | 0.00 | 36 | 1008.0 |
| 20260504180746 | 69 | 266 | 1.7 | 3.5 | 0.00 | 0.00 | 0.00 | 36 | 1008.0 |
| 20260504180247 | 69 | 165 | 4.3 | 7.0 | 0.00 | 0.00 | 0.00 | 37 | 1008.0 |
| 20260504175747 | 69 | 228 | 1.7 | 5.2 | 0.00 | 0.00 | 0.00 | 36 | 1008.0 |
| 20260504175247 | 69 | 267 | 2.6 | 6.1 | 0.00 | 0.00 | 0.00 | 36 | 1008.0 |
| 20260504174747 | 69 | 158 | 5.2 | 7.0 | 0.00 | 0.00 | 0.00 | 35 | 1008.0 |
| 20260504174246 | 69 | 159 | 3.5 | 8.7 | 0.00 | 0.00 | 0.00 | 36 | 1008.0 |
| 20260504173747 | 68 | 300 | 1.7 | 2.6 | 0.00 | 0.00 | 0.00 | 35 | 1008.0 |
| 20260504173247 | 68 | 333 | 3.5 | 7.0 | 0.00 | 0.00 | 0.00 | 36 | 1008.0 |
| 20260504172747 | 68 | 282 | 0.9 | 2.6 | 0.00 | 0.00 | 0.00 | 36 | 1008.0 |
| 20260504172247 | 67 | 182 | 2.6 | 4.3 | 0.00 | 0.00 | 0.00 | 36 | 1008.0 |
| 20260504171748 | 67 | 171 | 1.7 | 4.3 | 0.00 | 0.00 | 0.00 | 37 | 1008.0 |
| 20260504171247 | 67 | 217 | 0.9 | 2.6 | 0.00 | 0.00 | 0.00 | 37 | 1008.0 |
| 20260504170746 | 67 | 199 | 3.5 | 6.1 | 0.00 | 0.00 | 0.00 | 36 | 1009.0 |
| 20260504170246 | 67 | 329 | 2.6 | 4.3 | 0.00 | 0.00 | 0.00 | 37 | 1009.0 |
| 20260504160247 | 66 | 307 | 1.7 | 2.6 | 0.00 | 0.00 | 0.00 | 38 | 1009.0 |
| 20260504150748 | 63 | 303 | 1.7 | 5.2 | 0.00 | 0.00 | 0.00 | 41 | 1010.0 |
| 20260504150248 | 62 | 225 | 0.9 | 2.6 | 0.00 | 0.00 | 0.00 | 42 | 1010.0 |
| 20260504141249 | 60 | 305 | 1.7 | 3.5 | 0.00 | 0.00 | 0.00 | 46 | 1010.0 |
| 20260504140746 | 60 | 166 | 4.3 | 7.8 | 0.00 | 0.00 | 0.00 | 47 | 1010.0 |
| 20260504140248 | 60 | 205 | 1.7 | 3.5 | 0.00 | 0.00 | 0.00 | 47 | 1011.0 |
| 20260504130750 | 55 | 178 | 1.7 | 2.6 | 0.00 | 0.00 | 0.00 | 51 | 1011.0 |
| 20260504130248 | 55 | 98 | 0.9 | 2.6 | 0.00 | 0.00 | 0.00 | 51 | 1011.0 |
| 20260504120247 | 51 | 82 | 0.0 | 1.7 | 0.00 | 0.00 | 0.00 | 56 | 1011.0 |
| 20260504110247 | 47 | 0 | 0.0 | 0.0 | 0.00 | 0.00 | 0.00 | 62 | 1011.0 |
| 20260504100249 | 40 | 252 | 0.0 | 0.9 | 0.00 | 0.00 | 0.00 | 75 | 1011.0 |
| 20260504081748 | 42 | 0 | 0.0 | 0.0 | 0.00 | 0.00 | 0.00 | 71 | 1011.0 |
| 20260504081247 | 43 | 0 | 0.0 | 0.0 | 0.00 | 0.00 | 0.00 | 72 | 1011.0 |
| 20260504080746 | 43 | 201 | 0.0 | 0.0 | 0.00 | 0.00 | 0.00 | 69 | 1011.0 |
| 20260504080246 | 44 | 0 | 0.0 | 0.0 | 0.00 | 0.00 | 0.00 | 69 | 1011.0 |
| 20260504070247 | 44 | 0 | 0.0 | 0.0 | 0.00 | 0.00 | 0.00 | 65 | 1011.0 |
| 20260504060246 | 43 | 0 | 0.0 | 0.0 | 0.00 | 0.00 | 0.00 | 60 | 1011.0 |
| 20260504050746 | 43 | 0 | 0.0 | 0.0 | 0.00 | 0.00 | 0.00 | 66 | 1011.0 |
| 20260504050246 | 43 | 0 | 0.0 | 0.0 | 0.00 | 0.00 | 0.00 | 66 | 1011.0 |
| 20260504045747 | 43 | 0 | 0.0 | 0.0 | 0.00 | 0.00 | 0.00 | 63 | 1011.0 |
| 20260504045246 | 44 | 0 | 0.0 | 0.0 | 0.00 | 0.00 | 0.00 | 65 | 1011.0 |
| 20260504044746 | 44 | 233 | 0.0 | 1.7 | 0.00 | 0.00 | 0.00 | 65 | 1011.0 |
| 20260504044246 | 44 | 270 | 0.0 | 0.9 | 0.00 | 0.00 | 0.00 | 61 | 1011.0 |
| 20260504043746 | 44 | 0 | 0.0 | 0.0 | 0.00 | 0.00 | 0.00 | 65 | 1011.0 |
| 20260504043246 | 44 | 251 | 0.0 | 0.9 | 0.00 | 0.00 | 0.00 | 62 | 1011.0 |
| 20260504042746 | 44 | 0 | 0.0 | 0.0 | 0.00 | 0.00 | 0.00 | 64 | 1011.0 |
| 20260504042246 | 44 | 0 | 0.0 | 0.0 | 0.00 | 0.00 | 0.00 | 63 | 1011.0 |
| 20260504041746 | 44 | 0 | 0.0 | 0.0 | 0.00 | 0.00 | 0.00 | 63 | 1011.0 |
| 20260504041247 | 44 | 0 | 0.0 | 0.0 | 0.00 | 0.00 | 0.00 | 64 | 1011.0 |
| 20260504040746 | 44 | 0 | 0.0 | 0.0 | 0.00 | 0.00 | 0.00 | 64 | 1011.0 |
| 20260504040246 | 44 | 238 | 0.0 | 0.9 | 0.00 | 0.00 | 0.00 | 62 | 1011.0 |
| 20260504035746 | 44 | 0 | 0.0 | 0.0 | 0.00 | 0.00 | 0.00 | 65 | 1011.0 |
| 20260504035246 | 44 | 0 | 0.0 | 0.0 | 0.00 | 0.00 | 0.00 | 62 | 1011.0 |
| 20260504034746 | 43 | 254 | 0.0 | 1.7 | 0.00 | 0.00 | 0.00 | 62 | 1011.0 |
| 20260504034246 | 43 | 0 | 0.0 | 0.0 | 0.00 | 0.00 | 0.00 | 59 | 1011.0 |
| 20260504033747 | 43 | 0 | 0.0 | 0.0 | 0.00 | 0.00 | 0.00 | 64 | 1011.0 |
| 20260504033246 | 42 | 0 | 0.0 | 0.0 | 0.00 | 0.00 | 0.00 | 63 | 1011.0 |
| 20260504032746 | 42 | 0 | 0.0 | 0.0 | 0.00 | 0.00 | 0.00 | 65 | 1011.0 |
| 20260504032246 | 42 | 0 | 0.0 | 0.0 | 0.00 | 0.00 | 0.00 | 66 | 1010.0 |
| 20260504031747 | 42 | 0 | 0.0 | 0.0 | 0.00 | 0.00 | 0.00 | 66 | 1010.0 |
| 20260504031246 | 42 | 0 | 0.0 | 0.0 | 0.00 | 0.00 | 0.00 | 66 | 1010.0 |
| 20260504030746 | 42 | 0 | 0.0 | 0.0 | 0.00 | 0.00 | 0.00 | 65 | 1010.0 |
| 20260504030246 | 42 | 0 | 0.0 | 0.0 | 0.00 | 0.00 | 0.00 | 66 | 1010.0 |
| 20260504025746 | 41 | 294 | 0.0 | 0.9 | 0.00 | 0.00 | 0.00 | 65 | 1010.0 |
| 20260504025246 | 41 | 0 | 0.0 | 0.0 | 0.00 | 0.00 | 0.00 | 65 | 1010.0 |
| 20260504024746 | 40 | 226 | 0.0 | 0.9 | 0.00 | 0.00 | 0.00 | 64 | 1010.0 |
| 20260504024246 | 40 | 0 | 0.0 | 0.0 | 0.00 | 0.00 | 0.00 | 66 | 1010.0 |
| 20260504023746 | 40 | 0 | 0.0 | 0.0 | 0.00 | 0.00 | 0.00 | 66 | 1010.0 |
| 20260504023246 | 39 | 247 | 0.0 | 0.0 | 0.00 | 0.00 | 0.00 | 68 | 1010.0 |
| 20260504022746 | 38 | 0 | 0.0 | 0.0 | 0.00 | 0.00 | 0.00 | 70 | 1010.0 |
| 20260504022246 | 38 | 0 | 0.0 | 0.0 | 0.00 | 0.00 | 0.00 | 73 | 1010.0 |
| 20260504021748 | 38 | 0 | 0.0 | 0.0 | 0.00 | 0.00 | 0.00 | 76 | 1010.0 |
| 20260504021247 | 39 | 0 | 0.0 | 0.0 | 0.00 | 0.00 | 0.00 | 75 | 1010.0 |
| 20260504020746 | 39 | 0 | 0.0 | 0.0 | 0.00 | 0.00 | 0.00 | 77 | 1010.0 |
| 20260504020246 | 39 | 0 | 0.0 | 0.0 | 0.00 | 0.00 | 0.00 | 73 | 1010.0 |
| 20260504015747 | 39 | 0 | 0.0 | 0.0 | 0.00 | 0.00 | 0.00 | 72 | 1010.0 |
| 20260504015246 | 40 | 0 | 0.0 | 0.0 | 0.00 | 0.00 | 0.00 | 70 | 1010.0 |
| 20260504014746 | 40 | 0 | 0.0 | 0.0 | 0.00 | 0.00 | 0.00 | 69 | 1010.0 |
| 20260504014246 | 40 | 0 | 0.0 | 0.0 | 0.00 | 0.00 | 0.00 | 72 | 1010.0 |
| 20260504013746 | 40 | 0 | 0.0 | 0.0 | 0.00 | 0.00 | 0.00 | 74 | 1010.0 |
| 20260504013246 | 40 | 0 | 0.0 | 0.0 | 0.00 | 0.00 | 0.00 | 72 | 1010.0 |
| 20260504012746 | 41 | 0 | 0.0 | 0.0 | 0.00 | 0.00 | 0.00 | 72 | 1010.0 |
| 20260504012246 | 41 | 0 | 0.0 | 0.0 | 0.00 | 0.00 | 0.00 | 71 | 1010.0 |
| 20260504011746 | 41 | 0 | 0.0 | 0.0 | 0.00 | 0.00 | 0.00 | 70 | 1010.0 |
| 20260504011246 | 42 | 0 | 0.0 | 0.0 | 0.00 | 0.00 | 0.00 | 67 | 1010.0 |
| 20260504010746 | 42 | 0 | 0.0 | 0.0 | 0.00 | 0.00 | 0.00 | 64 | 1010.0 |
| 20260504010246 | 42 | 0 | 0.0 | 0.0 | 0.00 | 0.00 | 0.00 | 66 | 1010.0 |
| 20260504005746 | 42 | 0 | 0.0 | 0.0 | 0.00 | 0.00 | 0.00 | 63 | 1009.0 |
| 20260504005247 | 42 | 243 | 0.0 | 0.0 | 0.00 | 0.00 | 0.00 | 66 | 1009.0 |
| 20260504004747 | 42 | 0 | 0.0 | 0.0 | 0.00 | 0.00 | 0.00 | 65 | 1009.0 |
| 20260504004246 | 43 | 278 | 0.0 | 0.9 | 0.00 | 0.00 | 0.00 | 65 | 1009.0 |
| 20260504003746 | 43 | 0 | 0.0 | 0.0 | 0.00 | 0.00 | 0.00 | 63 | 1009.0 |
| 20260504003246 | 43 | 0 | 0.0 | 0.0 | 0.00 | 0.00 | 0.00 | 62 | 1009.0 |
| 20260504002746 | 44 | 247 | 0.0 | 0.0 | 0.00 | 0.00 | 0.00 | 62 | 1009.0 |
| 20260504002247 | 44 | 249 | 1.7 | 1.7 | 0.00 | 0.00 | 0.00 | 60 | 1009.0 |
| 20260504001746 | 44 | 259 | 0.0 | 1.7 | 0.00 | 0.00 | 0.00 | 59 | 1009.0 |
| 20260504001246 | 44 | 0 | 0.0 | 0.0 | 0.00 | 0.00 | 0.00 | 62 | 1009.0 |
| 20260504000747 | 44 | 0 | 0.0 | 0.0 | 0.00 | 0.00 | 0.00 | 64 | 1009.0 |
| 20260504000247 | 45 | 269 | 0.0 | 0.9 | 0.00 | 0.00 | 0.00 | 62 | 1009.0 |
| 20260503235746 | 46 | 0 | 0.0 | 0.0 | 0.00 | 0.00 | 0.00 | 59 | 1009.0 |
| 20260503235246 | 46 | 274 | 0.0 | 0.9 | 0.00 | 0.00 | 0.00 | 57 | 1009.0 |
| 20260503234747 | 46 | 0 | 0.0 | 0.0 | 0.00 | 0.00 | 0.00 | 53 | 1009.0 |
| 20260503234246 | 47 | 0 | 0.0 | 0.0 | 0.00 | 0.00 | 0.00 | 54 | 1009.0 |
| 20260503233747 | 47 | 0 | 0.0 | 0.0 | 0.00 | 0.00 | 0.00 | 54 | 1009.0 |
| 20260503233246 | 47 | 0 | 0.0 | 0.0 | 0.00 | 0.00 | 0.00 | 51 | 1009.0 |
| 20260503232747 | 48 | 0 | 0.0 | 0.0 | 0.00 | 0.00 | 0.00 | 52 | 1009.0 |
| 20260503232246 | 48 | 45 | 0.9 | 2.6 | 0.00 | 0.00 | 0.00 | 50 | 1009.0 |
| 20260503231746 | 49 | 0 | 0.0 | 0.0 | 0.00 | 0.00 | 0.00 | 48 | 1009.0 |
| 20260503231246 | 49 | 0 | 0.0 | 0.0 | 0.00 | 0.00 | 0.00 | 48 | 1009.0 |
| 20260503230746 | 50 | 0 | 0.0 | 0.0 | 0.00 | 0.00 | 0.00 | 49 | 1009.0 |
| 20260503230246 | 50 | 0 | 0.0 | 0.0 | 0.00 | 0.00 | 0.00 | 47 | 1009.0 |
| 20260503225746 | 50 | 149 | 0.9 | 3.5 | 0.00 | 0.00 | 0.00 | 45 | 1009.0 |
| 20260503225246 | 50 | 252 | 0.9 | 1.7 | 0.00 | 0.00 | 0.00 | 45 | 1009.0 |
| 20260503224746 | 51 | 0 | 0.0 | 0.0 | 0.00 | 0.00 | 0.00 | 44 | 1008.0 |
| 20260503224246 | 51 | 0 | 0.0 | 0.0 | 0.00 | 0.00 | 0.00 | 43 | 1008.0 |
| 20260503223747 | 51 | 266 | 0.0 | 2.6 | 0.00 | 0.00 | 0.00 | 43 | 1008.0 |
| 20260503223246 | 51 | 312 | 0.0 | 1.7 | 0.00 | 0.00 | 0.00 | 44 | 1008.0 |
| 20260503222746 | 51 | 325 | 1.7 | 2.6 | 0.00 | 0.00 | 0.00 | 43 | 1008.0 |
| 20260503222246 | 51 | 243 | 0.9 | 2.6 | 0.00 | 0.00 | 0.00 | 43 | 1008.0 |
| 20260503221746 | 51 | 10 | 0.0 | 1.7 | 0.00 | 0.00 | 0.00 | 44 | 1008.0 |
| 20260503221246 | 50 | 268 | 0.0 | 0.9 | 0.00 | 0.00 | 0.00 | 44 | 1008.0 |
| 20260503220746 | 50 | 353 | 0.9 | 3.5 | 0.00 | 0.00 | 0.00 | 43 | 1008.0 |
| 20260503220246 | 50 | 318 | 1.7 | 3.5 | 0.00 | 0.00 | 0.00 | 43 | 1008.0 |
| 20260503215746 | 51 | 334 | 0.9 | 3.5 | 0.00 | 0.00 | 0.00 | 43 | 1008.0 |
| 20260503215246 | 51 | 279 | 1.7 | 3.5 | 0.00 | 0.00 | 0.00 | 42 | 1008.0 |
| 20260503214747 | 51 | 314 | 1.7 | 2.6 | 0.00 | 0.00 | 0.00 | 42 | 1008.0 |
| 20260503214247 | 52 | 270 | 2.6 | 4.3 | 0.00 | 0.00 | 0.00 | 42 | 1008.0 |
| 20260503213746 | 53 | 301 | 1.7 | 4.3 | 0.00 | 0.00 | 0.00 | 41 | 1008.0 |
| 20260503213246 | 53 | 347 | 1.7 | 2.6 | 0.00 | 0.00 | 0.00 | 41 | 1008.0 |
| 20260503212746 | 53 | 304 | 1.7 | 1.7 | 0.00 | 0.00 | 0.00 | 41 | 1008.0 |
| 20260503212246 | 53 | 295 | 1.7 | 3.5 | 0.00 | 0.00 | 0.00 | 41 | 1008.0 |
| 20260503211746 | 53 | 285 | 2.6 | 3.5 | 0.00 | 0.00 | 0.00 | 41 | 1008.0 |
| 20260503211246 | 53 | 255 | 0.0 | 1.7 | 0.00 | 0.00 | 0.00 | 42 | 1008.0 |
| 20260503210746 | 52 | 281 | 2.6 | 3.5 | 0.00 | 0.00 | 0.00 | 42 | 1008.0 |
| 20260503210246 | 51 | 341 | 3.5 | 5.2 | 0.00 | 0.00 | 0.00 | 42 | 1008.0 |
| 20260503205746 | 51 | 275 | 0.9 | 1.7 | 0.00 | 0.00 | 0.00 | 43 | 1008.0 |
| 20260503205246 | 51 | 339 | 0.9 | 1.7 | 0.00 | 0.00 | 0.00 | 43 | 1008.0 |
| 20260503204747 | 51 | 303 | 0.9 | 2.6 | 0.00 | 0.00 | 0.00 | 43 | 1008.0 |
| 20260503204246 | 51 | 335 | 1.7 | 4.3 | 0.00 | 0.00 | 0.00 | 42 | 1008.0 |
| 20260503203746 | 51 | 351 | 1.7 | 3.5 | 0.00 | 0.00 | 0.00 | 43 | 1008.0 |
| 20260503203246 | 51 | 356 | 1.7 | 4.3 | 0.00 | 0.00 | 0.00 | 42 | 1008.0 |
| 20260503202746 | 51 | 247 | 1.7 | 3.5 | 0.00 | 0.00 | 0.00 | 43 | 1008.0 |
| 20260503202247 | 51 | 43 | 1.7 | 4.3 | 0.00 | 0.00 | 0.00 | 42 | 1008.0 |
| 20260503201746 | 51 | 324 | 1.7 | 3.5 | 0.00 | 0.00 | 0.00 | 42 | 1008.0 |
| 20260503201246 | 51 | 278 | 2.6 | 4.3 | 0.00 | 0.00 | 0.00 | 42 | 1008.0 |
| 20260503200746 | 50 | 273 | 0.9 | 3.5 | 0.00 | 0.00 | 0.00 | 44 | 1008.0 |
| 20260503200248 | 50 | 0 | 3.5 | 6.1 | 0.00 | 0.00 | 0.00 | 43 | 1008.0 |
| 20260503195746 | 50 | 305 | 1.7 | 3.5 | 0.00 | 0.00 | 0.00 | 44 | 1008.0 |
| 20260503195246 | 50 | 314 | 1.7 | 3.5 | 0.00 | 0.00 | 0.00 | 43 | 1008.0 |
| 20260503194746 | 51 | 228 | 2.6 | 4.3 | 0.00 | 0.00 | 0.00 | 44 | 1008.0 |
| 20260503194246 | 51 | 311 | 1.7 | 3.5 | 0.00 | 0.00 | 0.00 | 43 | 1008.0 |
| 20260503193747 | 51 | 303 | 1.7 | 2.6 | 0.00 | 0.00 | 0.00 | 43 | 1008.0 |
| 20260503193246 | 51 | 243 | 0.9 | 3.5 | 0.00 | 0.00 | 0.00 | 42 | 1008.0 |